Location: Dumpton Point
(51.3500°N, 1.4433°E)
Time: 16:23:24
(UTC+00:00)

Okean 3 Rocket - Pass Details

Date: 09 April 2020
Orbit: 616 x 644 km, 82.5° (Epoch: 28 May)

Event Time Altitude Azimuth Distance (km) Brightness Sun altitude
Rises 20:46:58 0° 353° (N) 2,915 7.8 -18.2°
Reaches altitude 10° 20:49:15 10° 358° (N) 2,007 6.8 -18.4°
Maximum altitude 20:53:36 51° 75° (ENE) 790 3.8 -19.0°
Enters shadow 20:54:34 43° 117° (ESE) 891 3.9 -19.1°
